CZ-4B R/B (25732 NORAD) Tracking and Keplerian Element Data

This shows tracking and keplerian element data for the satellite.

Feedback or suggestion? Click here.




ElementValue
Catalog25732
NameCZ-4B R/B
Epoch Orbit27663
Epoch Day12.76187855
Epoch Year2024
RAAN59.9245
Inclination98.7763
Eccentricity0.0038308
Argument of Perigee84.5147
Mean Anonmoly25.1687
Mean Motion14.17905103
Decay Rate1.52E-06
L11 25732U 99025C 24012.76187855 .00000152 00000+0 95154-4 0 9995
L22 25732 98.7763 59.9245 0038308 84.5147 25.1687 14.17905103276630



Live tracking and technical data element details for CZ-4B R/B (NORAD 25732). CZ-4B R/B can be tracked NOW for your location showing map with azimuth and elevation plus other details from your city location.







IsCatalogInMostPopularTable: catalog: 25732, numindb: 433
Update: records affected: 1



GetName: 25732 CZ-4B R/B

Hit Count: updated at: Sun, 14 Apr 2024 22:49:04 GMT